User: anonymous   Login
Location: ????????
(55.0808°N, 38.5463°E)
Time: 21:47:40
(UTC+00:00)
Language:

CZ-2C R/B - Orbit

View from above orbital plane
View from above orbital plane
View from above satellite
View from above satellite

Ground track
Ground track

The orbit data is extracted from the following two-line orbital elements,

1 28480U 04046B   24170.56199483  .00000170  00000-0  79401-4 0  9998
2 28480  98.1625 114.6928 0139822 214.8720 144.3241 14.26385183 18790
Epoch (UTC): 18 June 2024 13:29:16
Eccentricity: 0.0139822
inclination: 98.1625°
perigee height: 703 km
apogee height: 904 km
right ascension of ascending node: 114.6928°
argument of perigee: 214.8720°
revolutions per day: 14.26385183
mean anomaly at epoch: 144.3241°
orbit number at epoch: 1879

The dashed part of the orbit path shows where the satellite is in the earth's shadow,  

DLR